Regional Weather Roundup
Issued by NWS

Home | Current Version | Previous Version | Text Only | Print | Product List | Glossary Off
Versions: 1 2 3 4 5 6 7 8 9 10 11 12 13 14 15 16 17 18 19 20 21 22 23 24 25 26 27 28 29 30 31 32 33 34 35 36 37 38 39 40 41 42 43 44 45 46 47 48 49 50

000
ASUS43 KMPX 300610
RWRMN
WEATHER ROUNDUP FOR MINNESOTA
NATIONAL WEATHER SERVICE TWIN CITIES/CHANHASSEN MN
1200 AM CST FRI JAN 30 2015


NOTE: "FAIR" INDICATES FEW OR NO CLOUDS BELOW 12,000 FEET WITH NO
SIGNIFICANT WEATHER AND/OR OBSTRUCTIONS TO VISIBILITY. N/A MEANS
CURRENT SKY AND/OR WEATHER CONDITIONS ARE NOT AVAILABLE.

MNZ060>063-068>070-300700-
   Twin Cities Metro

CITY           SKY/WX    TMP DP  RH WIND       PRES   REMARKS
TWIN CITIES    CLEAR     15   5  64 NW8       30.55R WCI   4
6HR MIN TEMP:  15; 6HR MAX TEMP:  24;

ST PAUL        CLEAR     15   5  64 NW9       30.57R WCI   3
CRYSTAL        CLEAR     14   6  70 NW5       30.54R WCI   6
BLAINE         CLEAR     12   7  79 NW5       30.54R WCI   4
LAKEVILLE      CLEAR     12   7  79 NW5       30.54R WCI   4
EDEN PRAIRIE   CLEAR     14   5  67 NW5       30.54R WCI   6
6HR MIN TEMP:  14; 6HR MAX TEMP:  24;

SOUTH ST PAUL  CLEAR     16   6  64 N5        30.55R WCI   9
LAKE ELMO      FAIR      14   7  73 NW3       30.54R
$$
MNZ001>005-007-008-013>017-022>024-027-028-300700-
   Northwest Minnesota

CITY           SKY/WX    TMP DP  RH WIND       PRES   REMARKS
BEMIDJI        MOCLDY    -2  -5  85 W5        30.52S WCI -12
HALLOCK        PTCLDY     1  -2  85 S3        30.54F
ROSEAU         MOCLDY     0  -8  71 CALM      30.54S
WARROAD        MOCLDY    -6  -9  84 W3        30.53S
THIEF RVR FALL PTCLDY     0  -6  78 CALM      30.54S
CROOKSTON      PTCLDY     3   0  85 E3        30.58F
FOSSTON        PTCLDY    -4  -8  84 CALM      30.54S
DETROIT LAKES  FAIR       3   1  92 CALM      30.53F
MOORHEAD       FAIR       7   5  92 CALM      30.58F
PARK RAPIDS    CLOUDY     4   0  83 NW8       30.52R WCI  -9
MAHNOMEN       FAIR       2  -2  83 CALM      30.54F
$$
MNZ006-009>011-018-025>026-300700-
   North Central Minnesota

CITY           SKY/WX    TMP DP  RH WIND       PRES   REMARKS
BAUDETTE       MOCLDY    -6 -10  83 SW3       30.50S
FLAG ISLAND    PTCLDY    -6  -9  84 CALM      30.51R
INTL FALLS     PTCLDY   -15 -20  78 W3        30.49S
6HR MIN TEMP: -19; 6HR MAX TEMP:   7;

WASKISH        PTCLDY    -2  -6  84 CALM      30.52S
BIG FORK       PTCLDY    -9 -13  84 CALM      30.50S
LONGVILLE      PTCLDY     1  -2  85 W3        30.53R
GRAND RAPIDS   PTCLDY     1  -2  85 NW8       30.48R WCI -12
CRANE LAKE     CLOUDY     3  -2  78 CALM      30.50S
ORR            PTCLDY    -6  -9  84 CALM      30.45S
COOK           PTCLDY    -2  -6  84 CALM      30.47S
WALKER         FAIR       0  -4  84 CALM      30.53R
$$
MNZ012-019>021-037-300700-
   Northeast Minnesota

CITY           SKY/WX    TMP DP  RH WIND       PRES   REMARKS
DULUTH         MOCLDY     5  -2  72 N6        30.44S WCI  -6
6HR MIN TEMP:   5; 6HR MAX TEMP:  12;

ELY            CLOUDY     3  -2  78 N5        30.44S WCI  -6
HIBBING        FAIR      -2  -7  79 NW7       30.47R WCI -15
EVELETH        PTCLDY     5   0  78 N5        30.47R WCI  -4
DULUTH HARBOR  PTCLDY    10   1  67 NW10      30.53R WCI  -3
TWO HARBORS    PTCLDY     9   1  72 NW5       30.44F WCI   0
SILVER BAY     PTCLDY     9   1  72 CALM      30.44S
GRAND MARAIS     N/A      6  -4  63 CALM      30.50R
G MARAIS ARPRT PTCLDY     0  -8  71 NW6       30.37R WCI -12
$$
MNZ029>031-032-039>041-046>048-054>057-064-300700-
   West Central Minnesota

CITY           SKY/WX    TMP DP  RH WIND       PRES   REMARKS
FERGUS FALLS   FAIR       7   0  72 CALM      30.60S
WHEATON        CLEAR      9   5  85 CALM      30.60S
MORRIS         FAIR      10   7  85 CALM      30.56F
ALEXANDRIA     CLEAR      7   3  84 N3        30.54R
ELBOW LAKE     FAIR       8   3  82 CALM      30.56S
WADENA         PTCLDY     3   0  85 NW5       30.55R WCI  -6
GLENWOOD       CLEAR      9   3  78 NW3       30.55S
APPLETON       CLEAR     12   9  85 CALM      30.58F
BENSON         FAIR       9   5  85 N3        30.57F
ORTONVILLE     PTCLDY    12   9  85 N5        30.57S WCI   4
MADISON        FLURRIES  21  16  79 NE7       30.57F WCI  13
WILLMAR        FAIR      12   7  79 NW8       30.58R WCI   1
$$
MNZ033>034-036-042>043-049>051-058-059-300700-
   Central Minnesota

CITY           SKY/WX    TMP DP  RH WIND       PRES   REMARKS
ST CLOUD       CLEAR     10   6  84 NW9       30.55R WCI  -3
6HR MIN TEMP:  10; 6HR MAX TEMP:  19;

SAUK CENTRE    FAIR       8   3  80 NW9       30.56R WCI  -5
PAYNESVILLE    CLEAR      8   6  89 W5        30.56R WCI   0
AITKIN         MIX PCPN  10   1  67 CALM      30.50R
PINE RIVER     PTCLDY     3   0  85 NW5       30.56R WCI  -6
BRAINERD       CLEAR      6   1  80 NW7       30.54R WCI  -6
STAPLES        MOCLDY     3   1  92 NW6       30.55R WCI  -8
LONG PRAIRIE   FAIR       7   3  85 W8        30.55R WCI  -6
LITTLE FALLS   CLEAR     10   3  72 NW6       30.56R WCI   1
LITCHFIELD     CLEAR     12   9  85 NW8       30.56R WCI   1
BUFFALO        CLEAR     13   7  78 W8        30.56R WCI   2
MAPLE LAKE     CLEAR     13  10  84 W7        30.56R WCI   3
$$
MNZ037-044-045-052-053-300700-
   East Central Minnesota

CITY           SKY/WX    TMP DP  RH WIND       PRES   REMARKS
PRINCETON      CLEAR     10   5  79 CALM      30.54R
MORA           CLEAR      9   1  72 NW7       30.54R WCI  -3
CAMBRIDGE      CLEAR     12   3  67 NW5       30.53R WCI   4
RUSH CITY      CLEAR     10   4  77 NW5       30.54R WCI   2
MOOSE LAKE     CLEAR      7   0  72 N7        30.49S WCI  -5
HINCKLEY       FAIR      10   5  79 CALM      30.52R
CLOQUET        PTCLDY     1  -2  85 NW6       30.47S WCI -10
MCGREGOR       PTCLDY     5   1  85 NW7       30.52R WCI  -7
$$
MNZ071>073-080-081-089-090-097-098-300700-
   Southwest Minnesota

CITY           SKY/WX    TMP DP  RH WIND       PRES   REMARKS
MONTEVIDEO     CLEAR     12  10  92 NE5       30.59F WCI   4
GRANITE FALLS  CLEAR     14  11  85 NW7       30.60S WCI   4
CANBY          CLOUDY    19  13  79 N6        30.57F WCI  10
MARSHALL       CLOUDY    18  12  79 NE8       30.57F WCI   7
REDWOOD FALLS  CLEAR     15   9  76 NW8       30.58R WCI   4
OLIVIA         CLEAR     14  10  85 NW9       30.58R WCI   2
PIPESTONE      CLOUDY    19  16  86 NE5       30.51S WCI  13
WINDOM         CLEAR     16  12  86 NW10      30.54F WCI   3
WORTHINGTON    CLOUDY    19  12  73 N12       30.53S WCI   7
JACKSON        CLEAR     18  12  79 NW14      30.53F WCI   4
TRACY          CLOUDY    19  15  84 N7        30.55F WCI  10
SLAYTON        CLOUDY    18  14  82 NW5       30.53S WCI  11
$$
MNZ065>067-074>077-082>085-091>093-300700-
   South Central Minnesota

CITY           SKY/WX    TMP DP  RH WIND       PRES   REMARKS
MANKATO        CLEAR     16   9  73 NW13      30.54R WCI   2
NEW ULM        FAIR      14   9  79 NW15      30.57R WCI  -1
ST JAMES       CLEAR     16  12  86 W13       30.58R WCI   2
FAIRMONT       CLEAR     16  10  79 NW13      30.54R WCI   2
GLENCOE        CLEAR     15  11  83 NW12      30.56R WCI   2
FARIBAULT      CLEAR     16   9  73 NW6       30.53R WCI   7
OWATONNA       CLEAR     16   9  73 NW6       30.52R WCI   7
WASECA         CLEAR     18  14  86 NW8       30.54R WCI   7
ALBERT LEA     CLEAR     18  12  79 NW9       30.50R WCI   6
$$
MNZ078>079-086>088-094>096-300700-
   Southeast Minnesota

CITY           SKY/WX    TMP DP  RH WIND       PRES   REMARKS
ROCHESTER      CLEAR     13   6  74 N15       30.48R WCI  -3
6HR MIN TEMP:  13; 6HR MAX TEMP:  24;

RED WING       CLEAR     12   5  73 NW5       30.53R WCI   4
STANTON        CLEAR     16   9  73 N9        30.52R WCI   4
DODGE CENTER   PTCLDY    14   9  79 N6        30.49S WCI   5
WINONA         CLEAR     19  10  68 NW12      30.52R WCI   7
AUSTIN         CLEAR     18   9  68 N9G17     30.49R WCI   6
PRESTON        CLEAR     14   8  76 N10       30.48R WCI   1
$$
ABBREVIATIONS USED IN REMARKS
   TC - TEMPERATURES IN CELSIUS
  WCI - WIND CHILL INDEX
   HX - HEAT INDEX
  VSB - VISIBILITY
$$



USA.gov is the U.S. government's official web portal to all federal, state and local government web resources and services.